DW0333 Tranby-Lier NO current weather conditions

sailwx.info

Wind from 285 at 3 knots

Air temperature 3.9° C
Dewpoint -0.5° C

Last reported at 2015-Apr-27 16:47 UTC.
Time now 2015-Apr-27 17:09 UTC

Location: N 59°50' E 010°17'.
View on Google Maps.

See reports from other nearby stations

  
Tides and Currents Weather Stations Pressure Air Temp Water Temp Dewpoint Dewpoint Depression Visibility Wind Speed Wind Dir Waves Ship Positions
date/time (UTC)wind fromknots sea level pressurealtimeterstation pressurevisibilityair tempwater tempwave heightnotes
2015-Apr-27 16:47 285 3 3.9
2015-Apr-27 16:33 288 4 4.4
2015-Apr-27 16:17 173 4 5.0
2015-Apr-27 16:03 149 3 5.0
2015-Apr-27 15:48 123 4 5.0
2015-Apr-27 15:33 141 4 5.6
2015-Apr-27 15:15 202 3 5.6
2015-Apr-27 15:00 121 3 6.1
2015-Apr-27 14:45 207 2 6.7
2015-Apr-27 14:30 277 2 6.7
2015-Apr-27 14:14 302 0 4.4
2015-Apr-27 13:59 284 4 3.9
2015-Apr-27 13:44 297 2 4.4
2015-Apr-27 13:29 300 3 4.4
2015-Apr-27 13:12 282 5 4.4
2015-Apr-27 12:57 291 4 5.6
2015-Apr-27 12:43 271 3 5.6
2015-Apr-27 12:28 173 4 6.7
2015-Apr-27 12:13 193 5 7.2
2015-Apr-27 11:58 148 4 8.3
2015-Apr-27 11:43 149 4 8.9
2015-Apr-27 11:27 074 2 8.3
2015-Apr-27 11:13 102 1 7.2
2015-Apr-27 10:58 070 1 7.2
2015-Apr-27 10:40 082 2 6.7
2015-Apr-27 10:25 109 0 5.6
2015-Apr-27 10:10 263 1 5.6
2015-Apr-27 09:55 231 2 5.6
2015-Apr-27 09:39 192 2 6.7
2015-Apr-27 09:23 212 2 7.8
2015-Apr-27 09:08 169 3 7.8
2015-Apr-27 08:54 073 2 7.8
2015-Apr-27 08:38 140 3 7.8
2015-Apr-27 08:23 086 1 7.8
2015-Apr-27 08:07 044 2 7.2
2015-Apr-27 07:52 071 3 6.7
2015-Apr-27 07:38 098 1 6.1
2015-Apr-27 07:23 069 5.6
2015-Apr-27 07:07 075 0 4.4
2015-Apr-27 06:53 088 1 3.9
2015-Apr-27 06:38 070 0 3.3
2015-Apr-27 06:21 296 0 2.8
2015-Apr-27 06:05 298 0 1.7
2015-Apr-27 05:50 341 1 1.1
2015-Apr-27 05:34 333 1 -0.0
2015-Apr-27 05:19 316 1 -0.0
2015-Apr-27 05:04 002 1 -0.0
2015-Apr-27 04:48 346 0 -0.0
2015-Apr-27 04:33 101 -0.6
2015-Apr-27 04:18 086 0 -0.0
2015-Apr-27 04:03 075 -0.0
2015-Apr-27 03:48 086 -0.0
2015-Apr-27 03:33 086 0 -0.0
2015-Apr-27 03:17 084 0 -0.0
2015-Apr-27 03:03 286 0 -0.0
2015-Apr-27 02:48 156 0 -0.0
2015-Apr-27 02:31 084 1 0.6
2015-Apr-27 02:18 308 2 0.6
2015-Apr-27 02:03 293 2 0.6
2015-Apr-27 01:47 299 2 0.6
2015-Apr-27 01:33 318 3 0.6
2015-Apr-27 01:15 296 3 0.6
2015-Apr-27 01:00 324 3 0.6
2015-Apr-27 00:44 306 3 0.6
2015-Apr-27 00:29 317 3 0.6
2015-Apr-27 00:14 348 3 0.6
2015-Apr-26 23:59 033 3 0.6
2015-Apr-26 23:44 321 3 0.6
2015-Apr-26 23:28 337 3 0.6
2015-Apr-26 23:13 008 0 1.1
2015-Apr-26 22:57 307 1 1.1
2015-Apr-26 22:43 297 1 1.7
2015-Apr-26 22:28 308 1 1.7
2015-Apr-26 22:13 296 3 1.7
2015-Apr-26 21:58 298 2 2.2
2015-Apr-26 21:43 305 1 2.2
2015-Apr-26 21:27 307 1 2.8
2015-Apr-26 21:13 293 2 2.8
2015-Apr-26 20:58 298 2 3.3
2015-Apr-26 20:40 307 2 3.3
2015-Apr-26 20:25 269 3 3.9
2015-Apr-26 20:10 287 3 3.9
2015-Apr-26 19:54 302 5 3.9
2015-Apr-26 19:38 296 3 4.4
2015-Apr-26 19:24 333 1 4.4
2015-Apr-26 19:08 344 0 5.0
2015-Apr-26 18:53 346 1 5.6
2015-Apr-26 18:38 277 1 6.1
2015-Apr-26 18:23 271 1 6.1
2015-Apr-26 18:08 242 1 6.7
2015-Apr-26 17:53 253 1 6.7
2015-Apr-26 17:38 147 2 7.2
2015-Apr-26 17:23 116 1 6.7
2015-Apr-26 17:08 097 2 6.7
2015-Apr-26 16:53 038 2 6.1
2015-Apr-26 16:38 113 2 6.1
2015-Apr-26 16:22 054 1 6.1
2015-Apr-26 16:05 048 1 6.1
2015-Apr-26 15:50 104 3 6.7
2015-Apr-26 15:35 111 3 7.2
2015-Apr-26 15:19 302 6.7
2015-Apr-26 15:04 317 0 6.7
2015-Apr-26 14:49 104 2 6.7
2015-Apr-26 14:34 148 2 7.2
2015-Apr-26 14:19 052 2 7.8
2015-Apr-26 14:03 142 4 8.3
2015-Apr-26 13:48 174 5 7.8
2015-Apr-26 13:33 159 5 6.7
2015-Apr-26 13:17 150 5 7.2
2015-Apr-26 13:03 174 5 7.2
2015-Apr-26 12:48 316 2 7.2
2015-Apr-26 12:32 251 5 8.9
2015-Apr-26 12:18 207 5 8.9
2015-Apr-26 12:03 143 6 9.4
2015-Apr-26 11:48 263 5 7.8
2015-Apr-26 11:33 150 5 8.3
2015-Apr-26 11:15 279 6 8.3
2015-Apr-26 10:59 212 4 7.8
2015-Apr-26 10:45 268 4 6.7
2015-Apr-26 10:30 265 3 6.7
2015-Apr-26 10:14 198 4 7.8
2015-Apr-26 09:59 279 6 7.2
2015-Apr-26 09:43 250 6 7.2
2015-Apr-26 09:28 185 6 7.8
2015-Apr-26 09:13 150 6 7.2
2015-Apr-26 08:58 177 5 6.7
2015-Apr-26 08:43 250 5 6.1
2015-Apr-26 08:28 156 5 6.1
2015-Apr-26 08:11 207 3 5.6
2015-Apr-26 07:58 234 4 5.0
2015-Apr-26 07:42 183 5 4.4
2015-Apr-26 07:29 178 5 4.4
2015-Apr-26 07:13 223 4 3.9
2015-Apr-26 06:58 253 3 3.3
2015-Apr-26 06:39 260 5 2.8
2015-Apr-26 06:25 185 4 2.8
2015-Apr-26 06:09 170 5 2.2
2015-Apr-26 05:53 175 4 1.7
2015-Apr-26 05:39 159 5 1.7
2015-Apr-26 05:24 281 5 1.1
2015-Apr-26 05:08 183 5 1.1
2015-Apr-26 04:53 193 4 0.6
2015-Apr-26 04:38 150 2 0.6
2015-Apr-26 04:23 188 2 0.6
2015-Apr-26 04:07 170 4 0.6
2015-Apr-26 03:53 207 3 0.6
2015-Apr-26 03:38 158 3 0.6
2015-Apr-26 03:22 185 4 0.6
2015-Apr-26 03:07 154 2 -0.0
2015-Apr-26 02:52 100 1 -0.0
2015-Apr-26 02:38 117 1 0.6
2015-Apr-26 02:20 104 1 0.6
2015-Apr-26 02:05 112 1 0.6
2015-Apr-26 01:50 059 2 0.6
2015-Apr-26 01:35 038 1 0.6
2015-Apr-26 01:19 030 1 0.6
2015-Apr-26 01:04 096 1 0.6
2015-Apr-26 00:49 127 0 1.1
2015-Apr-26 00:32 275 0 1.7
2015-Apr-26 00:18 267 1 1.7
2015-Apr-26 00:03 282 1 1.7
2015-Apr-25 23:48 028 1 2.2
2015-Apr-25 23:33 203 4 2.2
2015-Apr-25 23:18 232 4 2.8
2015-Apr-25 23:03 245 5 2.8
2015-Apr-25 22:48 263 3 3.3
2015-Apr-25 22:32 200 5 3.9
2015-Apr-25 22:17 217 8 4.4
2015-Apr-25 22:00 275 5 5.6
2015-Apr-25 21:44 194 6 5.6
2015-Apr-25 21:29 197 6 6.1
2015-Apr-25 21:15 154 6 6.1
2015-Apr-25 20:58 222 6 6.1
2015-Apr-25 20:44 167 7 6.1
2015-Apr-25 20:28 142 7 6.1
2015-Apr-25 20:13 148 7 6.1
2015-Apr-25 19:58 199 7 6.7
2015-Apr-25 19:43 142 7 6.7
2015-Apr-25 19:28 212 7 6.7
2015-Apr-25 19:12 123 6 6.7
2015-Apr-25 18:58 140 7 6.7
2015-Apr-25 18:41 194 8 6.7
2015-Apr-25 18:27 135 7 6.7
2015-Apr-25 18:13 178 7 6.7
2015-Apr-25 17:58 105 7 6.7
2015-Apr-25 17:42 152 7 6.7
2015-Apr-25 17:25 222 6 6.7
2015-Apr-25 17:10 142 6 6.7